Location: Rogers' Astrophysics Observatory
(34.4289°N, 82.8708°W)
Time: 00:01:23
(UTC-04:00)

ISS - Visible Passes

Search period start: 23 April 2018 00:00
Search period end: 03 May 2018 00:00
Orbit: 403 x 406 km, 51.6° (Epoch: 23 April)

Date Brightness Start Highest point End Pass type
(mag) Time Alt. Az. Time Alt. Az. Time Alt. Az.
29 Apr -1.3 05:36:23 10° S 05:38:32 17° SE 05:40:41 10° E visible
01 May -3.1 05:28:29 23° SSW 05:30:11 46° SE 05:33:20 10° ENE visible
02 May -1.7 04:38:24 21° ESE 04:38:24 21° ESE 04:40:33 10° ENE visible
02 May -2.5 06:11:28 10° W 06:14:20 28° NW 06:17:14 10° NNE visible
